Showing default

SPACEMOBILE-005, 61046

Orbit data source: Space-Track

SPACEMOBILE-005, 61046 is a payload satellite owned by AST & Science (US) in LEO that was launched on Thu, 12 Sep 2024 UTC via an FALCON 9 launch vehicle from the Air Force Eastern Test Range (AFETR). Payload-class satellites include a variety of spacecraft equipped with specific instruments for various scientific and technological missions. These include communications satellites like Starlink; space stations such as the ISS; scientific satellites like the Hubble; Earth observation satellites from companies like Planet Labs, Umbra, and HawkEye 360; GPS; miniature CubeSats for education and research; and military/defense satellites.

Loading next visibility...
Identifier
61046, 2024-163B
Orbit
LEO
Country
Flag of USUS
Related business
Manufacturer
AST & Science
Mission
Operational Commercial Communications
Bus & Motor
BW3, Unknown motor
Mass
1,500 kg wet, 1,500 kg dry
Launch date (UTC)
2024-09-12 (2 years ago)
Launch vehicle
FALCON 9
Launch site
Air Force Eastern Test Range (AFETR)
Object type
Payload
Rocket body
Debris
Shape & HBR
Box + 1 Plate, 6.5 m
Radar Cross Section
32.590 m², Large (>1 m²)

Expand to show TLE details & history
Last TLE update: 15 hours ago

TLE from 15 hours ago
0 SPACEMOBILE-005
1 61046U 24163B   26106.75704541 -.00001171  00000-0 -37276-4 0  9992
2 61046  52.9773 231.8556 0008808 308.8116  51.2091 15.21110613 88413
Epoch: 2026-04-16T18:10Z
TLE epoch observation values (Epoch: 2026-04-16T18:10:08.723Z)
Latitude
-0.00005°
Longitude
114.41921°
Altitude
499.573 km
Speed
7.618 km/s
True Right ascension
15h 27m 25s
True Declination
0° 00' 00"
Sunlit
Object was in full shadow at epoch
Visualization orbit readout
Latitude
Unknown
Longitude
Unknown
Altitude
Unknown
Speed
Unknown
Apparent Right ascension
Unknown
Apparent Declination
Unknown
Sunlit
N/A
Visualization observer readout
Local Sidereal Time
15:58:05
Azimuth
Unknown
Elevation
Unknown
Doppler factor
Unknown
Orbital elements
Apogee altitude
508.835 km
Perigee altitude
496.714 km
Semi-major axis
6,880.911 km
Eccentricity
0.00088
Inclination
52.9773°
RAAN
231.8556°
Arg. of periapsis
308.8116°
True anomaly
51.28782°
Mean anomaly
51.2091°
Eccentric anomaly
51.24846°
Mean motion
3.80254 °/min
Orbital period
94.67 mins
BSTAR
-0.000037276
Loading maneuver chart data...
Computing Atmospheric mass density...
Loading historical data...
Loading historical data...
Loading historical data...
Loading historical data...
Loading historical data...
Loading historical data...
Loading historical data...

Documentation

Showing up to 5 results
|